Location: Nairn
(57.5833°N, 3.8667°W)
Time: 01:49:51
(UTC+00:00)

Transit 2A - Pass Details

Date: 30 November 2020
Orbit: 598 x 960 km, 66.7° (Epoch: 20 January)

Event Time Altitude Azimuth Distance (km) Brightness Sun altitude
Rises 18:15:57 0° 220° (SW) 3,615 10.3 -19.8°
Reaches altitude 10° 18:18:33 10° 220° (SW) 2,650 9.4 -20.1°
Maximum altitude 18:24:46 82° 134° (SE) 910 6.2 -21.0°
Enters shadow 18:27:13 37° 51° (NE) 1,326 6.8 -21.3°
